Location: ?????
(55.8833°N, 37.6500°E)
Time: 18:47:33
(UTC+00:00)

STARLINK-1057 - Pass Details

Date: 27 February 2020
Orbit: 549 x 550 km, 53.0° (Epoch: 29 March)

Event Time Altitude Azimuth Distance (km) Brightness Sun altitude
Rises 15:58:04 0° 234° (SW) 2,713 8.2 -9.1°
Reaches altitude 10° 16:00:24 10° 227° (SW) 1,821 7.0 -9.5°
Maximum altitude 16:04:15 39° 158° (SSE) 836 4.4 -10.0°
Enters shadow 16:07:20 15° 94° (E) 1,539 5.2 -10.4°
